Flight Track Log - Related Links

Times and Time Zones

All times are in EDT time to prevent confusion due to time zone crossing. See the DAL6241 flight status page for this flight to view local times or setup timezone preferences in your user account.

Time Position Orientation Groundspeed Altitude Reporting Facility
EDT Latitude Longitude Course Direction KTS MPH feet Rate Location/Type
Tue 08:11:15 PM 40.7333 -73.8333 246° West 189 217 3,000  Level New York TRACON
Tue 08:12:09 PM 40.7333 -73.7667 90° East 222 255 6,200 2,550 Climbing New York TRACON
Tue 08:13:15 PM 40.7667 -73.8333 303° West 252 290 8,100 2,333 Climbing New York TRACON
Tue 08:14:15 PM 40.7833 -73.9333 282° West 275 316 11,100 1,850 Climbing New York TRACON
Tue 08:15:15 PM 40.7833 -74.0333 270° West 292 336 11,800 932 Climbing New York TRACON
Tue 08:16:00 PM 40.5738 -74.4456 246° West  Level FlightAware Approximate
Tue 08:17:41 PM 40.7714 -74.2975 267° West 352 405 14,300  Level New York Center
Tue 08:18:41 PM 40.7133 -74.4314 240° Southwest 369 425 15,900 2,085 Climbing New York Center
Tue 08:19:39 PM 40.6489 -74.5539 235° Southwest 397 457 18,400 2,034 Climbing New York Center
Tue 08:20:39 PM 40.5892 -74.6600 233° Southwest 410 472 19,900 793 Climbing New York Center
Tue 08:21:40 PM 40.5247 -74.7844 236° Southwest 415 478 20,000 50 Climbing New York Center
Tue 08:22:40 PM 40.4514 -74.9167 234° Southwest 431 496 20,000 -50 Level New York Center
Tue 08:23:41 PM 40.3742 -75.0372 230° Southwest 441 507 19,900  Descending New York Center
Tue 08:24:41 PM 40.2947 -75.1522 228° Southwest 441 507 20,000 -102 Climbing New York Center
Tue 08:25:39 PM 40.2156 -75.2639 227° Southwest 433 498 19,700 -915 Descending New York Center
Tue 08:26:39 PM 40.1275 -75.3833 226° Southwest 426 490 18,200 -1,180 Descending New York Center
Tue 08:27:41 PM 40.0503 -75.4892 226° Southwest 420 483 17,300 -988 Descending New York Center
Tue 08:28:04 PM 40.0222 -75.5281 227° Southwest 398 458 16,800 -1,116 Descending FAA TRACON SMA TRACON (SMA)
Tue 08:28:24 PM 39.9978 -75.5614 226° Southwest 391 450 16,500 -1,200 Descending FAA TRACON SMA TRACON (SMA)
Tue 08:28:44 PM 39.9689 -75.6011 227° Southwest 390 449 16,000 -1,350 Descending FAA TRACON SMA TRACON (SMA)
Tue 08:29:04 PM 39.9458 -75.6322 226° Southwest 389 448 15,600 -1,350 Descending FAA TRACON SMA TRACON (SMA)
Tue 08:29:24 PM 39.9172 -75.6706 226° Southwest 386 444 15,100 -1,200 Descending FAA TRACON SMA TRACON (SMA)
Tue 08:29:44 PM 39.8947 -75.7011 226° Southwest 384 442 14,800 -1,050 Descending FAA TRACON SMA TRACON (SMA)
Tue 08:30:04 PM 39.8722 -75.7314 226° Southwest 381 438 14,400 -1,350 Descending FAA TRACON SMA TRACON (SMA)
Tue 08:30:24 PM 39.8433 -75.7675 224° Southwest 379 436 13,900 -1,171 Descending FAA TRACON SMA TRACON (SMA)
Tue 08:30:45 PM 39.8217 -75.7992 228° Southwest 378 435 13,600 -1,050 Descending FAA TRACON SMA TRACON (SMA)
Tue 08:31:04 PM 39.7997 -75.8286 226° Southwest 377 434 13,200 -1,231 Descending FAA TRACON SMA TRACON (SMA)
Tue 08:31:24 PM 39.7769 -75.8592 226° Southwest 377 434 12,800 -1,200 Descending FAA TRACON SMA TRACON (SMA)
Tue 08:31:44 PM 39.7494 -75.8958 226° Southwest 376 433 12,400 -1,200 Descending FAA TRACON SMA TRACON (SMA)
Tue 08:32:04 PM 39.7272 -75.9267 227° Southwest 375 432 12,000 -1,350 Descending FAA TRACON SMA TRACON (SMA)
Tue 08:32:24 PM 39.6994 -75.9639 226° Southwest 374 430 11,500 -1,200 Descending FAA TRACON SMA TRACON (SMA)
Tue 08:32:44 PM 39.6772 -75.9936 226° Southwest 374 430 11,200 -1,050 Descending FAA TRACON SMA TRACON (SMA)
Tue 08:33:04 PM 39.6550 -76.0231 226° Southwest 373 429 10,800 -1,200 Descending FAA TRACON SMA TRACON (SMA)
Tue 08:33:24 PM 39.6286 -76.0578 225° Southwest 373 429 10,400 -1,200 Descending FAA TRACON SMA TRACON (SMA)
Tue 08:33:44 PM 39.6047 -76.0897 226° Southwest 373 429 10,000 -600 Descending FAA TRACON SMA TRACON (SMA)
Tue 08:34:04 PM 39.5847 -76.1192 229° Southwest 371 427 10,000  Level FAA TRACON SMA TRACON (SMA)
Tue 08:34:25 PM 39.5542 -76.1475 216° Southwest 348 400 10,000  Level FAA TRACON SMA TRACON (SMA)
Tue 08:34:44 PM 39.5219 -76.1519 186° South 373 429 10,000  Level FAA TRACON SMA TRACON (SMA)
Tue 08:35:05 PM 39.4900 -76.1525 181° South 369 425 10,000  Level FAA TRACON SMA TRACON (SMA)
Tue 08:35:24 PM 39.4497 -76.1525 180° South 377 434 10,000  Level FAA TRACON SMA TRACON (SMA)
Tue 08:35:45 PM 39.4164 -76.1544 183° South 386 444 10,000  Level FAA TRACON SMA TRACON (SMA)
Tue 08:36:04 PM 39.3828 -76.1542 180° South 385 443 10,000  Level FAA TRACON SMA TRACON (SMA)
Tue 08:36:24 PM 39.3428 -76.1547 181° South 380 437 10,000  Level FAA TRACON SMA TRACON (SMA)
Tue 08:36:44 PM 39.3103 -76.1550 180° South 379 436 10,000  Level FAA TRACON SMA TRACON (SMA)
Tue 08:37:04 PM 39.2797 -76.1553 180° South 376 433 10,000  Level FAA TRACON SMA TRACON (SMA)
Tue 08:37:25 PM 39.2389 -76.1547 179° South 373 429 10,000  Level FAA TRACON SMA TRACON (SMA)
Tue 08:37:44 PM 39.2081 -76.1558 182° South 368 423 10,000  Level FAA TRACON SMA TRACON (SMA)
Tue 08:38:05 PM 39.1767 -76.1561 180° South 367 422 10,000  Level FAA TRACON SMA TRACON (SMA)
Tue 08:38:25 PM 39.1372 -76.1558 180° South 368 423 10,000  Level FAA TRACON SMA TRACON (SMA)
Tue 08:38:44 PM 39.1089 -76.1561 180° South 366 421 10,000  Level FAA TRACON SMA TRACON (SMA)
Tue 08:39:04 PM 39.0756 -76.1561 180° South 366 421 10,000  Level FAA TRACON SMA TRACON (SMA)
Tue 08:39:24 PM 39.0344 -76.1633 188° South 371 427 10,000  Level FAA TRACON SMA TRACON (SMA)
Tue 08:39:44 PM 39.0036 -76.1761 198° South 372 428 10,000  Level FAA TRACON SMA TRACON (SMA)
Tue 08:40:08 PM 38.9689 -76.1844 191° South 378 435 10,000  Level FAA TRACON SMA TRACON (SMA)
Tue 08:40:27 PM 38.9297 -76.2006 198° South 373 429 10,000  Level FAA TRACON SMA TRACON (SMA)
Tue 08:40:44 PM 38.9017 -76.2050 187° South 373 429 10,000  Level FAA TRACON SMA TRACON (SMA)
Tue 08:41:04 PM 38.8706 -76.2158 195° South 376 433 10,000  Level FAA TRACON SMA TRACON (SMA)
Tue 08:41:24 PM 38.8394 -76.2283 197° South 380 437 10,000  Level FAA TRACON SMA TRACON (SMA)
Tue 08:41:45 PM 38.7944 -76.2378 189° South 382 440 10,000  Level FAA TRACON SMA TRACON (SMA)
Tue 08:42:04 PM 38.7642 -76.2517 200° South 383 441 10,000  Level FAA TRACON SMA TRACON (SMA)
Tue 08:42:25 PM 38.7319 -76.2644 197° South 382 440 10,000  Level FAA TRACON SMA TRACON (SMA)
Tue 08:42:44 PM 38.7000 -76.2761 196° South 382 440 10,000  Level FAA TRACON SMA TRACON (SMA)
Tue 08:43:04 PM 38.6661 -76.2856 192° South 382 440 10,000  Level FAA TRACON SMA TRACON (SMA)
Tue 08:43:24 PM 38.6314 -76.2950 192° South 382 440 10,000  Level FAA TRACON SMA TRACON (SMA)
Tue 08:43:44 PM 38.5883 -76.3056 191° South 383 441 10,000  Level FAA TRACON SMA TRACON (SMA)
Tue 08:44:04 PM 38.5569 -76.3189 198° South 382 440 10,000  Level FAA TRACON SMA TRACON (SMA)
Tue 08:44:24 PM 38.5239 -76.3283 193° South 381 438 10,000  Level FAA TRACON SMA TRACON (SMA)
Tue 08:44:44 PM 38.4906 -76.3386 194° South 381 438 10,000 -150 Level FAA TRACON SMA TRACON (SMA)
Tue 08:45:04 PM 38.4586 -76.3447 189° South 382 440 9,900  Descending FAA TRACON SMA TRACON (SMA)
Tue 08:45:25 PM 38.4239 -76.3594 198° South 382 440 10,000 150 Climbing FAA TRACON SMA TRACON (SMA)
Tue 08:45:44 PM 38.3903 -76.3694 193° South 383 441 10,000  Level FAA TRACON SMA TRACON (SMA)
Tue 08:46:05 PM 38.3492 -76.3828 194° South 382 440 10,000  Level FAA TRACON SMA TRACON (SMA)
Tue 08:46:24 PM 38.3156 -76.3928 193° South 383 441 10,000  Level FAA TRACON SMA TRACON (SMA)
Tue 08:46:44 PM 38.2853 -76.4119 206° Southwest 375 432 10,000  Level FAA TRACON SMA TRACON (SMA)
Tue 08:47:04 PM 38.2606 -76.4403 222° Southwest 375 432 10,000  Level FAA TRACON SMA TRACON (SMA)
Tue 08:47:24 PM 38.2381 -76.4722 228° Southwest 374 430 10,000  Level FAA TRACON SMA TRACON (SMA)
Tue 08:47:45 PM 38.2161 -76.5042 229° Southwest 373 429 10,000  Level FAA TRACON SMA TRACON (SMA)
Tue 08:48:04 PM 38.1878 -76.5433 227° Southwest 374 430 10,000  Level FAA TRACON SMA TRACON (SMA)
Tue 08:48:24 PM 38.1653 -76.5747 228° Southwest 374 430 10,000  Level FAA TRACON SMA TRACON (SMA)
Tue 08:48:45 PM 38.1422 -76.6050 226° Southwest 372 428 10,000  Level FAA TRACON SMA TRACON (SMA)
Tue 08:49:04 PM 38.1203 -76.6369 229° Southwest 372 428 10,000  Level FAA TRACON SMA TRACON (SMA)
Tue 08:49:44 PM 38.0756 -76.6997 228° Southwest 374 430 10,000  Level FAA TRACON SMA TRACON (SMA)
Tue 08:50:05 PM 38.0522 -76.7303 226° Southwest 373 429 10,000  Level FAA TRACON SMA TRACON (SMA)
Tue 08:50:25 PM 38.0300 -76.7617 228° Southwest 372 428 10,000  Level FAA TRACON SMA TRACON (SMA)
Tue 08:50:46 PM 38.0025 -76.8011 229° Southwest 371 427 10,000  Level FAA TRACON SMA TRACON (SMA)
Tue 08:51:06 PM 37.9808 -76.8328 229° Southwest 370 426 10,000  Level FAA TRACON SMA TRACON (SMA)
Tue 08:51:26 PM 37.9728 -76.8736 256° West 354 407 10,000  Level FAA TRACON SMA TRACON (SMA)
Tue 08:51:46 PM 37.9581 -76.9103 243° Southwest 371 427 10,000  Level FAA TRACON SMA TRACON (SMA)
Tue 08:52:06 PM 37.9411 -76.9456 239° Southwest 370 426 10,000  Level FAA TRACON SMA TRACON (SMA)
Tue 08:52:26 PM 37.9200 -76.9903 239° Southwest 369 425 10,000  Level FAA TRACON SMA TRACON (SMA)
Tue 08:52:46 PM 37.9031 -77.0264 239° Southwest 368 423 10,000  Level FAA TRACON SMA TRACON (SMA)
Tue 08:53:06 PM 37.8856 -77.0617 238° Southwest 368 423 10,000  Level FAA TRACON SMA TRACON (SMA)
Tue 08:53:26 PM 37.8686 -77.0972 239° Southwest 368 423 10,000  Level FAA TRACON SMA TRACON (SMA)
Tue 08:53:46 PM 37.8511 -77.1322 238° Southwest 366 421 10,000  Level FAA TRACON SMA TRACON (SMA)
Tue 08:54:06 PM 37.8344 -77.1678 239° Southwest 366 421 10,000  Level FAA TRACON SMA TRACON (SMA)
Tue 08:54:25 PM 37.8308 -77.2083 264° West 358 412 10,000  Level FAA TRACON SMA TRACON (SMA)
Tue 08:54:45 PM 37.8375 -77.2478 282° West 366 421 10,000  Level FAA TRACON SMA TRACON (SMA)
Tue 08:55:05 PM 37.8464 -77.2961 283° West 353 406 10,000  Level FAA TRACON SMA TRACON (SMA)
Tue 08:55:25 PM 37.8553 -77.3356 286° West 358 412 10,000  Level FAA TRACON SMA TRACON (SMA)
Tue 08:55:45 PM 37.8631 -77.3742 284° West 356 410 10,000  Level FAA TRACON SMA TRACON (SMA)
Tue 08:56:05 PM 37.8708 -77.4133 284° West 356 410 10,000  Level FAA TRACON SMA TRACON (SMA)
Tue 08:56:25 PM 37.8781 -77.4517 283° West 352 405 10,000  Level FAA TRACON SMA TRACON (SMA)
Tue 08:56:45 PM 37.8858 -77.4906 284° West 355 409 10,000  Level FAA TRACON SMA TRACON (SMA)
Tue 08:57:06 PM 37.8881 -77.5006 286° West 356 410 10,000  Level FAA TRACON SMA TRACON (SMA)
Tue 08:58:10 PM 37.9197 -77.6661 284° West 354 407 10,000  Level Washington Center
Tue 08:59:10 PM 37.9447 -77.7853 285° West 354 407 10,000  Level Washington Center
Tue 09:00:10 PM 37.9675 -77.9069 283° West 354 407 10,000 -200 Level Washington Center
Tue 09:01:10 PM 37.9864 -78.0078 283° West 335 386 9,600 -1,100 Descending Washington Center
Tue 09:02:10 PM 37.9992 -78.0950 281° West 289 333 7,800 -1,800 Descending Washington Center
Tue 09:03:10 PM 38.0017 -78.1742 272° West 259 298 6,000 -1,850 Descending Washington Center
Tue 09:04:10 PM 38.0078 -78.2747 274° West 254 292 4,100 -1,500 Descending Washington Center
Tue 09:05:10 PM 38.0125 -78.3406 275° West 254 292 3,000 -700 Descending Washington Center
Tue 09:06:10 PM 38.0228 -78.4333 278° West 235 270 2,700 -300 Descending Washington Center
Tue 09:07:10 PM 38.0467 -78.4792 304° West 196 226 2,400 -550 Descending Washington Center
Tue 09:08:10 PM 38.0864 -78.4806 358° North 135 155 1,600 -800 Descending Washington Center
Tue 09:10:00 PM 38.1333 -78.4500 North  Level FlightAware Approximate
Tue 09:17:00 PM 38.1386 -78.4529 North  Level Estimated
Tue 09:18:00 PM 38.1333 -78.4500 North  Level FlightAware Approximate
Tue 09:19:00 PM 38.1386 -78.4529 North  Level Estimated
Tue 09:20:00 PM 38.1333 -78.4500 North  Level FlightAware Approximate
Tue 09:21:00 PM 38.1386 -78.4529 North  Level Estimated
Tue 09:22:00 PM 38.1333 -78.4500 North  Level FlightAware Approximate
Tue 09:23:00 PM 38.1386 -78.4529 North  Level Estimated
Tue 09:24:00 PM 38.1333 -78.4500 North  Level FlightAware Approximate
Tue 09:25:00 PM 38.1386 -78.4529 North  Level Estimated

Login

Don't have an account? Register now (free) for customized features, flight alerts, and more!